QPF
0.00 0.00 0.00 0.00 0.00 0.00 0.01 0.01 0.01 0.01 0.02 0.03 0.05 0.07 0.07 0.09 0.11 0.10 0.07 0.03 0.01 0.00 0.01 0.00 0.00 0.00 0.00 0.00 0.01 0.02 0.04 0.05 0.04 0.06 0.08 0.08 0.08 0.07 0.05 0.03 0.02 0.01 0.00
0.00 0.00 0.00 0.00 0.00 0.00 0.00 0.00 0.00 0.00 0.00 0.00 0.01 0.03 0.04 0.05 0.08 0.10 0.09 0.06 0.03 0.01 0.01 0.00 0.00 0.00 0.00 0.00 0.01 0.02 0.04 0.07 0.07 0.05 0.07 0.08 0.08 0.08 0.05 0.04 0.02 0.01 0.01
0.00 0.00 0.00 0.00 0.00 0.00 0.00 0.00 0.00 0.00 0.00 0.00 0.00 0.01 0.02 0.03 0.04 0.07 0.08 0.07 0.05 0.03 0.01 0.00 0.00 0.00 0.00 0.00 0.00 0.01 0.03 0.09 0.09 0.07 0.07 0.07 0.09 0.10 0.06 0.04 0.03 0.03 0.02
0.00 0.00 0.00 0.00 0.00 0.00 0.00 0.00 0.00 0.00 0.00 0.00 0.00 0.00 0.01 0.01 0.02 0.04 0.06 0.07 0.06 0.05 0.03 0.01 0.00 0.00 0.00 0.00 0.00 0.01 0.03 0.05 0.06 0.06 0.07 0.09 0.10 0.09 0.07 0.06 0.05 0.04 0.03
0.00 0.00 0.00 0.00 0.00 0.00 0.00 0.00 0.00 0.00 0.00 0.00 0.00 0.00 0.00 0.00 0.01 0.03 0.05 0.06 0.06 0.05 0.04 0.02 0.01 0.00 0.00 0.00 0.00 0.01 0.01 0.02 0.03 0.04 0.06 0.08 0.11 0.10 0.07 0.05 0.05 0.04 0.03
0.00 0.00 0.00 0.00 0.00 0.00 0.00 0.00 0.00 0.00 0.00 0.00 0.00 0.00 0.00 0.00 0.01 0.02 0.03 0.05 0.05 0.06 0.04 0.03 0.02 0.01 0.00 0.00 0.00 0.00 0.01 0.01 0.02 0.03 0.05 0.07 0.08 0.07 0.06 0.06 0.05 0.03 0.03
0.00 0.00 0.00 0.00 0.00 0.00 0.00 0.01 0.01 0.01 0.01 0.01 0.00 0.00 0.00 0.00 0.00 0.01 0.02 0.03 0.05 0.06 0.06 0.05 0.03 0.01 0.01 0.00 0.00 0.00 0.01 0.01 0.02 0.04 0.05 0.05 0.06 0.05 0.05 0.07 0.06 0.04 0.03
0.00 0.00 0.00 0.00 0.00 0.00 0.00 0.00 0.00 0.00 0.01 0.01 0.01 0.00 0.00 0.00 0.00 0.01 0.01 0.02 0.03 0.06 0.07 0.06 0.04 0.02 0.01 0.00 0.00 0.00 0.01 0.01 0.02 0.03 0.04 0.05 0.05 0.05 0.05 0.06 0.06 0.06 0.04
0.01 0.01 0.01 0.00 0.00 0.00 0.00 0.00 0.00 0.00 0.00 0.00 0.00 0.01 0.01 0.01 0.01 0.01 0.02 0.03 0.05 0.06 0.08 0.08 0.06 0.02 0.01 0.01 0.00 0.00 0.01 0.01 0.03 0.04 0.05 0.06 0.06 0.06 0.04 0.04 0.05 0.04 0.03
0.02 0.02 0.02 0.01 0.01 0.01 0.00 0.00 0.00 0.00 0.00 0.00 0.00 0.01 0.01 0.01 0.01 0.01 0.03 0.05 0.06 0.08 0.10 0.11 0.09 0.05 0.03 0.01 0.00 0.00 0.01 0.01 0.02 0.03 0.04 0.04 0.04 0.04 0.04 0.03 0.02 0.02 0.02
0.04 0.04 0.03 0.02 0.02 0.02 0.01 0.01 0.01 0.01 0.01 0.01 0.00 0.00 0.01 0.01 0.01 0.01 0.02 0.05 0.09 0.13 0.14 0.13 0.12 0.08 0.04 0.02 0.00 0.00 0.01 0.01 0.01 0.02 0.02 0.03 0.03 0.03 0.03 0.03 0.02 0.01 0.01
0.05 0.05 0.04 0.04 0.03 0.03 0.02 0.02 0.01 0.01 0.01 0.01 0.01 0.00 0.01 0.01 0.01 0.01 0.02 0.05 0.10 0.18 0.21 0.19 0.15 0.11 0.06 0.03 0.01 0.01 0.01 0.01 0.01 0.01 0.01 0.02 0.02 0.02 0.02 0.02 0.01 0.01 0.00
0.06 0.05 0.05 0.05 0.04 0.04 0.04 0.03 0.02 0.01 0.01 0.01 0.01 0.01 0.01 0.02 0.02 0.01 0.02 0.04 0.11 0.22 0.31 0.31 0.23 0.15 0.10 0.05 0.02 0.01 0.01 0.00 0.01 0.01 0.01 0.01 0.01 0.01 0.01 0.01 0.00 0.00 0.00
0.08 0.07 0.06 0.06 0.05 0.04 0.04 0.04 0.03 0.02 0.01 0.01 0.02 0.02 0.02 0.03 0.03 0.02 0.02 0.04 0.11 0.25 0.38 0.39 0.32 0.23 0.15 0.08 0.04 0.02 0.01 0.00 0.00 0.00 0.00 0.00 0.00 0.00 0.00 0.00 0.00 0.00 0.00
0.09 0.08 0.07 0.07 0.07 0.06 0.05 0.04 0.03 0.02 0.02 0.01 0.02 0.02 0.02 0.03 0.04 0.05 0.04 0.06 0.13 0.28 0.45 0.50 0.42 0.33 0.23 0.11 0.05 0.02 0.01 0.00 0.00 0.00 0.00 0.00 0.00 0.00 0.00 0.00 0.00 0.00 0.00
0.08 0.06 0.06 0.06 0.06 0.06 0.04 0.03 0.02 0.01 0.01 0.00 0.01 0.02 0.02 0.02 0.02 0.04 0.06 0.10 0.17 0.32 0.51 0.58 0.46 0.34 0.24 0.11 0.04 0.02 0.01 0.01 0.01 0.00 0.00 0.00 0.00 0.00 0.00 0.00 0.00 0.00 0.00
0.06 0.05 0.04 0.04 0.04 0.03 0.03 0.02 0.02 0.01 0.00 0.00 0.00 0.01 0.01 0.01 0.01 0.04 0.10 0.14 0.22 0.34 0.45 0.51 0.41 0.31 0.21 0.09 0.03 0.01 0.01 0.01 0.00 0.00 0.00 0.00 0.00 0.00 0.00 0.00 0.00 0.00 0.00
0.04 0.04 0.04 0.03 0.02 0.02 0.03 0.03 0.03 0.02 0.01 0.01 0.01 0.00 0.00 0.01 0.01 0.04 0.13 0.18 0.28 0.36 0.38 0.39 0.32 0.24 0.16 0.07 0.03 0.01 0.00 0.00 0.00 0.00 0.00 0.00 0.00 0.00 0.00 0.00 0.00 0.00 0.00
0.04 0.04 0.03 0.03 0.02 0.02 0.02 0.02 0.02 0.03 0.03 0.04 0.01 0.00 0.00 0.01 0.02 0.06 0.13 0.19 0.26 0.30 0.30 0.28 0.22 0.16 0.10 0.04 0.01 0.01 0.00 0.00 0.00 0.00 0.00 0.00 0.00 0.00 0.00 0.00 0.00 0.00 0.00
0.03 0.02 0.02 0.02 0.02 0.02 0.02 0.02 0.02 0.03 0.04 0.04 0.03 0.01 0.00 0.01 0.02 0.08 0.15 0.20 0.22 0.21 0.20 0.18 0.13 0.09 0.05 0.02 0.01 0.00 0.00 0.00 0.00 0.00 0.00 0.00 0.00 0.00 0.00 0.00 0.00 0.00 0.00
0.02 0.02 0.01 0.01 0.01 0.02 0.02 0.02 0.02 0.03 0.05 0.05 0.04 0.02 0.01 0.01 0.04 0.09 0.14 0.16 0.15 0.14 0.12 0.09 0.06 0.03 0.02 0.00 0.00 0.00 0.00 0.00 0.00 0.00 0.00 0.00 0.00 0.00 0.00 0.00 0.00 0.00 0.00
0.02 0.02 0.01 0.01 0.01 0.01 0.02 0.02 0.03 0.04 0.04 0.04 0.03 0.02 0.02 0.03 0.05 0.09 0.12 0.12 0.11 0.09 0.07 0.04 0.03 0.01 0.01 0.00 0.00 0.00 0.00 0.00 0.00 0.00 0.00 0.00 0.00 0.00 0.00 0.00 0.00 0.00 0.00
0.02 0.01 0.01 0.01 0.01 0.01 0.01 0.02 0.02 0.03 0.03 0.03 0.02 0.01 0.02 0.03 0.05 0.07 0.08 0.08 0.08 0.05 0.03 0.02 0.01 0.01 0.00 0.00 0.00 0.00 0.00 0.00 0.00 0.00 0.00 0.00 0.00 0.00 0.00 0.00 0.00 0.00 0.00
0.02 0.01 0.01 0.01 0.01 0.01 0.01 0.02 0.02 0.02 0.02 0.03 0.03 0.02 0.02 0.02 0.03 0.04 0.05 0.04 0.03 0.03 0.02 0.01 0.01 0.00 0.00 0.00 0.00 0.00 0.00 0.00 0.00 0.00 0.00 0.00 0.00 0.00 0.00 0.00 0.00 0.00 0.00
0.01 0.01 0.01 0.01 0.01 0.01 0.01 0.02 0.02 0.02 0.02 0.03 0.03 0.02 0.02 0.02 0.02 0.02 0.02 0.02 0.02 0.02 0.02 0.01 0.01 0.00 0.00 0.00 0.00 0.00 0.00 0.00 0.00 0.00 0.00 0.00 0.00 0.00 0.00 0.00 0.00 0.00 0.00
0.01 0.01 0.01 0.01 0.00 0.00 0.01 0.01 0.01 0.01 0.01 0.02 0.01 0.01 0.01 0.01 0.01 0.01 0.01 0.01 0.01 0.01 0.01 0.01 0.01 0.00 0.00 0.00 0.00 0.00 0.00 0.00 0.00 0.00 0.00 0.00 0.00 0.00 0.00 0.00 0.00 0.00 0.00
MSLP
1011.64 1011.57 1011.53 1011.47 1011.37 1011.20 1010.95 1010.63 1010.26 1009.86 1009.47 1009.11 1008.79 1008.51 1008.27 1008.06 1007.86 1007.67 1007.48 1007.30 1007.13 1007.01 1006.93 1006.90 1006.94 1007.02 1007.14 1007.30 1007.46 1007.64 1007.81 1007.99 1008.17 1008.37 1008.60 1008.87 1009.18 1009.54 1009.92 1010.32 1010.73 1011.13 1011.49
1010.98 1010.90 1010.86 1010.83 1010.78 1010.67 1010.51 1010.28 1010.00 1009.68 1009.35 1009.02 1008.71 1008.41 1008.14 1007.88 1007.63 1007.39 1007.16 1006.95 1006.77 1006.62 1006.52 1006.46 1006.45 1006.48 1006.56 1006.66 1006.80 1006.96 1007.15 1007.37 1007.62 1007.93 1008.28 1008.68 1009.12 1009.60 1010.10 1010.61 1011.10 1011.56 1011.96
1010.17 1010.08 1010.04 1010.02 1010.00 1009.95 1009.86 1009.71 1009.53 1009.30 1009.05 1008.78 1008.50 1008.22 1007.94 1007.67 1007.40 1007.14 1006.90 1006.68 1006.48 1006.32 1006.20 1006.11 1006.06 1006.05 1006.06 1006.12 1006.20 1006.33 1006.50 1006.73 1007.02 1007.39 1007.82 1008.32 1008.87 1009.46 1010.07 1010.67 1011.25 1011.79 1012.27
1009.26 1009.14 1009.08 1009.06 1009.05 1009.04 1009.01 1008.94 1008.85 1008.72 1008.55 1008.36 1008.14 1007.90 1007.65 1007.39 1007.12 1006.87 1006.63 1006.41 1006.22 1006.06 1005.93 1005.83 1005.75 1005.70 1005.67 1005.66 1005.69 1005.77 1005.90 1006.11 1006.40 1006.78 1007.26 1007.81 1008.44 1009.11 1009.81 1010.51 1011.18 1011.82 1012.40
1008.28 1008.13 1008.04 1007.99 1007.98 1007.99 1007.99 1007.99 1007.98 1007.93 1007.86 1007.75 1007.61 1007.43 1007.22 1007.00 1006.76 1006.53 1006.30 1006.11 1005.93 1005.79 1005.67 1005.57 1005.48 1005.40 1005.34 1005.29 1005.27 1005.29 1005.38 1005.55 1005.81 1006.17 1006.65 1007.22 1007.88 1008.60 1009.37 1010.15 1010.92 1011.66 1012.34
1007.25 1007.06 1006.93 1006.85 1006.82 1006.83 1006.86 1006.91 1006.96 1006.99 1007.01 1006.98 1006.92 1006.81 1006.66 1006.48 1006.27 1006.07 1005.88 1005.70 1005.56 1005.44 1005.34 1005.26 1005.19 1005.11 1005.04 1004.97 1004.92 1004.90 1004.95 1005.07 1005.29 1005.62 1006.06 1006.63 1007.29 1008.04 1008.85 1009.69 1010.54 1011.37 1012.16
1006.22 1005.98 1005.81 1005.69 1005.63 1005.63 1005.68 1005.76 1005.86 1005.96 1006.05 1006.11 1006.11 1006.07 1005.97 1005.83 1005.67 1005.49 1005.33 1005.18 1005.07 1004.99 1004.93 1004.88 1004.84 1004.79 1004.74 1004.68 1004.62 1004.60 1004.62 1004.70 1004.89 1005.18 1005.59 1006.12 1006.77 1007.52 1008.34 1009.22 1010.12 1011.02 1011.89
1005.22 1004.94 1004.72 1004.56 1004.47 1004.45 1004.50 1004.61 1004.75 1004.91 1005.05 1005.17 1005.24 1005.24 1005.19 1005.09 1004.95 1004.81 1004.67 1004.55 1004.47 1004.42 1004.41 1004.41 1004.42 1004.43 1004.42 1004.40 1004.38 1004.37 1004.40 1004.48 1004.65 1004.92 1005.30 1005.80 1006.42 1007.14 1007.96 1008.84 1009.76 1010.69 1011.61
1004.29 1003.97 1003.70 1003.50 1003.38 1003.35 1003.40 1003.52 1003.69 1003.88 1004.07 1004.23 1004.34 1004.39 1004.37 1004.30 1004.19 1004.06 1003.94 1003.85 1003.80 1003.79 1003.82 1003.88 1003.95 1004.03 1004.09 1004.14 1004.19 1004.24 1004.31 1004.42 1004.60 1004.87 1005.24 1005.72 1006.31 1006.99 1007.77 1008.62 1009.52 1010.44 1011.37
1003.46 1003.09 1002.78 1002.55 1002.41 1002.36 1002.40 1002.53 1002.72 1002.93 1003.15 1003.34 1003.48 1003.55 1003.56 1003.51 1003.41 1003.30 1003.20 1003.13 1003.11 1003.13 1003.21 1003.32 1003.46 1003.62 1003.77 1003.91 1004.04 1004.17 1004.32 1004.50 1004.73 1005.03 1005.41 1005.88 1006.44 1007.09 1007.81 1008.61 1009.45 1010.31 1011.19
1002.75 1002.33 1001.99 1001.72 1001.56 1001.50 1001.54 1001.66 1001.85 1002.08 1002.31 1002.52 1002.68 1002.77 1002.79 1002.76 1002.69 1002.60 1002.51 1002.46 1002.47 1002.52 1002.64 1002.80 1003.00 1003.23 1003.46 1003.70 1003.94 1004.17 1004.42 1004.69 1005.00 1005.35 1005.77 1006.24 1006.79 1007.40 1008.06 1008.77 1009.52 1010.30 1011.08
1002.15 1001.69 1001.31 1001.02 1000.84 1000.76 1000.79 1000.91 1001.10 1001.33 1001.57 1001.78 1001.95 1002.05 1002.10 1002.09 1002.04 1001.97 1001.91 1001.89 1001.91 1002.00 1002.14 1002.35 1002.60 1002.89 1003.20 1003.52 1003.86 1004.21 1004.56 1004.94 1005.34 1005.77 1006.24 1006.74 1007.28 1007.85 1008.45 1009.08 1009.72 1010.38 1011.05
1001.64 1001.14 1000.74 1000.43 1000.23 1000.14 1000.17 1000.28 1000.45 1000.67 1000.90 1001.12 1001.29 1001.41 1001.48 1001.49 1001.47 1001.44 1001.41 1001.41 1001.46 1001.57 1001.74 1001.97 1002.25 1002.58 1002.95 1003.36 1003.78 1004.23 1004.69 1005.18 1005.68 1006.20 1006.73 1007.27 1007.81 1008.36 1008.91 1009.45 1009.99 1010.52 1011.06
1001.21 1000.69 1000.26 999.94 999.73 999.63 999.64 999.74 999.90 1000.10 1000.32 1000.53 1000.71 1000.84 1000.93 1000.98 1000.99 1001.00 1001.01 1001.04 1001.11 1001.23 1001.42 1001.66 1001.96 1002.31 1002.72 1003.17 1003.67 1004.20 1004.76 1005.34 1005.94 1006.54 1007.15 1007.73 1008.30 1008.84 1009.34 1009.81 1010.26 1010.69 1011.11
1000.85 1000.31 999.87 999.54 999.33 999.22 999.21 999.29 999.43 999.62 999.82 1000.02 1000.19 1000.34 1000.45 1000.53 1000.59 1000.63 1000.67 1000.73 1000.83 1000.96 1001.15 1001.39 1001.69 1002.06 1002.48 1002.96 1003.51 1004.10 1004.73 1005.39 1006.08 1006.76 1007.43 1008.07 1008.66 1009.20 1009.69 1010.12 1010.50 1010.85 1011.19
1000.55 1000.01 999.57 999.24 999.03 998.91 998.89 998.95 999.07 999.22 999.40 999.58 999.76 999.91 1000.04 1000.15 1000.24 1000.32 1000.39 1000.48 1000.59 1000.73 1000.92 1001.15 1001.44 1001.80 1002.22 1002.72 1003.28 1003.91 1004.59 1005.32 1006.07 1006.82 1007.54 1008.23 1008.86 1009.42 1009.90 1010.32 1010.68 1011.00 1011.29
1000.31 999.78 999.36 999.04 998.83 998.72 998.69 998.72 998.81 998.94 999.09 999.25 999.42 999.57 999.71 999.84 999.95 1000.06 1000.16 1000.27 1000.39 1000.53 1000.70 1000.92 1001.20 1001.54 1001.95 1002.44 1003.02 1003.67 1004.38 1005.15 1005.94 1006.73 1007.51 1008.24 1008.90 1009.49 1009.99 1010.42 1010.79 1011.11 1011.40
1000.14 999.63 999.23 998.94 998.74 998.63 998.59 998.61 998.68 998.78 998.90 999.04 999.19 999.33 999.48 999.61 999.74 999.86 999.98 1000.09 1000.21 1000.35 1000.52 1000.72 1000.98 1001.30 1001.69 1002.18 1002.75 1003.41 1004.14 1004.92 1005.74 1006.56 1007.37 1008.13 1008.82 1009.44 1009.97 1010.43 1010.82 1011.17 1011.49
1000.03 999.56 999.19 998.92 998.74 998.64 998.60 998.61 998.66 998.74 998.84 998.96 999.09 999.22 999.36 999.49 999.62 999.75 999.87 999.98 1000.10 1000.23 1000.38 1000.57 1000.80 1001.11 1001.49 1001.96 1002.53 1003.18 1003.91 1004.70 1005.52 1006.35 1007.17 1007.94 1008.66 1009.30 1009.87 1010.36 1010.80 1011.18 1011.55
999.97 999.53 999.20 998.96 998.80 998.71 998.68 998.69 998.74 998.81 998.90 999.00 999.12 999.24 999.37 999.50 999.62 999.74 999.85 999.96 1000.07 1000.18 1000.32 1000.49 1000.71 1001.00 1001.37 1001.83 1002.38 1003.02 1003.74 1004.52 1005.33 1006.15 1006.97 1007.74 1008.46 1009.12 1009.70 1010.22 1010.70 1011.13 1011.54
999.96 999.55 999.24 999.03 998.89 998.82 998.80 998.83 998.88 998.95 999.04 999.14 999.26 999.38 999.50 999.62 999.74 999.85 999.95 1000.04 1000.13 1000.24 1000.36 1000.51 1000.72 1001.00 1001.35 1001.80 1002.34 1002.96 1003.66 1004.41 1005.20 1006.00 1006.79 1007.55 1008.25 1008.90 1009.49 1010.03 1010.52 1010.98 1011.42
999.96 999.58 999.29 999.09 998.98 998.93 998.93 998.97 999.03 999.12 999.22 999.34 999.46 999.59 999.71 999.83 999.95 1000.05 1000.14 1000.22 1000.30 1000.38 1000.49 1000.63 1000.83 1001.09 1001.43 1001.86 1002.38 1002.98 1003.65 1004.38 1005.13 1005.89 1006.65 1007.37 1008.05 1008.67 1009.25 1009.78 1010.27 1010.74 1011.19
1000.00 999.61 999.34 999.15 999.05 999.01 999.03 999.08 999.17 999.28 999.41 999.54 999.68 999.83 999.96 1000.09 1000.21 1000.31 1000.39 1000.46 1000.53 1000.60 1000.70 1000.83 1001.01 1001.26 1001.59 1002.00 1002.50 1003.07 1003.71 1004.39 1005.10 1005.82 1006.53 1007.20 1007.83 1008.42 1008.97 1009.47 1009.94 1010.39 1010.83
1000.07 999.68 999.39 999.20 999.10 999.06 999.09 999.16 999.26 999.40 999.55 999.71 999.88 1000.05 1000.20 1000.35 1000.47 1000.58 1000.66 1000.73 1000.79 1000.85 1000.94 1001.06 1001.23 1001.47 1001.78 1002.18 1002.65 1003.19 1003.79 1004.43 1005.10 1005.76 1006.41 1007.03 1007.61 1008.15 1008.65 1009.11 1009.54 1009.95 1010.35
1000.20 999.79 999.49 999.28 999.16 999.12 999.13 999.21 999.32 999.47 999.64 999.82 1000.01 1000.21 1000.39 1000.55 1000.69 1000.80 1000.89 1000.96 1001.02 1001.09 1001.17 1001.29 1001.45 1001.68 1001.97 1002.35 1002.80 1003.31 1003.87 1004.47 1005.08 1005.69 1006.28 1006.84 1007.37 1007.84 1008.29 1008.69 1009.08 1009.44 1009.79
1000.45 1000.01 999.68 999.43 999.28 999.21 999.21 999.26 999.36 999.51 999.68 999.88 1000.09 1000.29 1000.49 1000.67 1000.83 1000.95 1001.06 1001.14 1001.21 1001.28 1001.37 1001.48 1001.65 1001.87 1002.15 1002.51 1002.94 1003.42 1003.94 1004.49 1005.06 1005.61 1006.14 1006.64 1007.10 1007.52 1007.90 1008.25 1008.58 1008.89 1009.19
Thickness
5608 5609 5609 5610 5610 5611 5612 5616 5620 5624 5629 5633 5638 5642 5648 5653 5659 5663 5668 5672 5674 5677 5681 5683 5686 5690 5690 5690 5690 5689 5687 5686 5682 5680 5679 5676 5673 5671 5668 5667 5667 5668 5668
5586 5586 5586 5587 5588 5589 5592 5595 5600 5604 5609 5614 5620 5625 5630 5636 5642 5648 5654 5660 5665 5669 5673 5676 5680 5684 5685 5686 5686 5685 5685 5685 5683 5679 5675 5672 5668 5665 5662 5660 5659 5658 5658
5572 5569 5568 5568 5568 5569 5572 5575 5579 5583 5588 5594 5599 5605 5611 5617 5624 5631 5638 5646 5653 5659 5665 5669 5674 5676 5678 5680 5682 5682 5682 5683 5682 5678 5674 5670 5665 5660 5655 5652 5650 5649 5648
5566 5562 5560 5558 5558 5558 5558 5559 5561 5564 5568 5573 5578 5585 5592 5599 5606 5614 5622 5631 5640 5648 5655 5661 5667 5670 5673 5675 5677 5678 5678 5679 5679 5676 5672 5666 5661 5655 5651 5646 5642 5640 5638
5560 5556 5555 5554 5552 5551 5550 5550 5551 5552 5555 5557 5560 5565 5572 5579 5588 5596 5605 5615 5624 5633 5643 5651 5658 5664 5668 5670 5672 5674 5675 5676 5675 5674 5669 5663 5657 5651 5646 5641 5638 5633 5629
5555 5552 5549 5547 5545 5543 5543 5543 5543 5544 5545 5546 5548 5551 5556 5563 5572 5579 5587 5597 5607 5618 5628 5638 5647 5655 5660 5663 5667 5670 5672 5673 5673 5671 5667 5662 5655 5650 5643 5638 5634 5630 5622
5549 5546 5543 5540 5537 5536 5535 5535 5535 5535 5537 5538 5540 5542 5545 5550 5555 5562 5571 5580 5591 5603 5615 5626 5636 5644 5650 5654 5659 5663 5667 5670 5672 5671 5666 5661 5654 5649 5642 5634 5630 5627 5622
5540 5537 5534 5531 5529 5527 5525 5525 5525 5526 5528 5530 5533 5536 5539 5543 5546 5550 5556 5565 5575 5588 5601 5613 5624 5633 5640 5645 5649 5653 5658 5662 5665 5666 5664 5659 5653 5646 5640 5634 5627 5620 5614
5524 5522 5521 5519 5518 5516 5515 5515 5516 5517 5519 5522 5526 5530 5532 5536 5540 5543 5547 5551 5561 5573 5587 5601 5613 5623 5631 5636 5640 5644 5647 5651 5655 5656 5656 5652 5646 5640 5635 5628 5621 5615 5606
5507 5506 5506 5505 5505 5505 5506 5507 5508 5509 5512 5515 5519 5523 5526 5530 5535 5538 5540 5543 5550 5561 5573 5588 5601 5612 5620 5626 5632 5636 5639 5642 5645 5644 5643 5640 5637 5632 5628 5624 5620 5613 5606
5490 5490 5491 5491 5492 5494 5496 5498 5500 5502 5504 5507 5511 5516 5520 5525 5529 5533 5535 5536 5542 5550 5561 5575 5588 5599 5609 5616 5623 5629 5633 5635 5636 5636 5633 5630 5627 5623 5620 5618 5616 5613 5606
5476 5476 5477 5478 5480 5486 5487 5490 5492 5495 5497 5500 5504 5508 5513 5519 5523 5527 5530 5532 5537 5542 5552 5564 5577 5587 5597 5605 5613 5618 5621 5625 5627 5626 5624 5621 5618 5615 5613 5612 5610 5608 5606
5467 5466 5467 5468 5471 5474 5478 5482 5485 5488 5491 5495 5498 5502 5507 5512 5517 5522 5525 5527 5531 5536 5545 5556 5567 5577 5586 5595 5602 5607 5612 5617 5618 5617 5615 5612 5611 5609 5607 5604 5601 5600 5599
5462 5461 5461 5463 5465 5468 5472 5477 5481 5485 5487 5491 5494 5498 5502 5506 5511 5515 5518 5521 5524 5529 5537 5547 5558 5568 5579 5588 5592 5598 5605 5609 5611 5609 5606 5603 5601 5600 5599 5598 5595 5593 5590
5461 5460 5460 5461 5463 5467 5471 5475 5480 5484 5487 5489 5492 5496 5498 5502 5508 5512 5514 5516 5519 5524 5530 5538 5549 5560 5571 5581 5587 5592 5597 5600 5600 5599 5598 5596 5594 5592 5590 5589 5588 5587 5585
5463 5462 5462 5462 5464 5468 5471 5476 5480 5483 5487 5490 5492 5495 5497 5501 5505 5507 5509 5511 5514 5517 5524 5534 5544 5556 5567 5577 5584 5587 5590 5593 5593 5593 5592 5590 5588 5585 5582 5581 5582 5581 5579
5469 5467 5467 5467 5469 5471 5474 5476 5479 5482 5486 5488 5490 5492 5494 5496 5498 5499 5502 5504 5507 5512 5520 5529 5539 5551 5563 5573 5580 5583 5585 5587 5587 5587 5587 5585 5583 5580 5578 5576 5575 5574 5573
5478 5477 5476 5474 5475 5476 5478 5481 5482 5483 5484 5484 5485 5487 5489 5489 5491 5493 5495 5499 5503 5509 5518 5527 5538 5549 5560 5569 5575 5578 5580 5581 5582 5582 5581 5579 5578 5576 5574 5573 5571 5570 5569
5487 5485 5484 5484 5484 5484 5485 5487 5488 5488 5486 5484 5482 5482 5483 5484 5486 5488 5492 5498 5504 5511 5518 5527 5537 5548 5557 5565 5571 5574 5577 5577 5578 5577 5576 5575 5574 5572 5571 5570 5570 5569 5568
5496 5498 5497 5494 5493 5493 5493 5493 5493 5491 5489 5486 5484 5483 5482 5483 5486 5489 5493 5499 5506 5512 5519 5528 5538 5547 5555 5562 5567 5570 5573 5573 5573 5573 5572 5572 5571 5571 5570 5569 5568 5568 5567
5505 5504 5506 5502 5500 5500 5499 5499 5498 5497 5494 5491 5488 5486 5486 5488 5491 5494 5498 5503 5509 5516 5523 5531 5540 5548 5555 5561 5566 5569 5571 5571 5571 5571 5570 5570 5570 5569 5569 5569 5568 5568 5567
5514 5512 5511 5508 5507 5506 5506 5505 5503 5502 5499 5496 5492 5490 5489 5492 5495 5499 5504 5509 5515 5521 5528 5537 5545 5552 5558 5563 5566 5568 5569 5569 5569 5570 5569 5569 5568 5568 5568 5568 5567 5566 5565
5522 5521 5518 5516 5515 5514 5512 5511 5509 5507 5504 5501 5498 5496 5496 5499 5502 5506 5511 5516 5522 5528 5535 5543 5550 5555 5561 5564 5568 5570 5570 5570 5571 5571 5570 5568 5568 5568 5568 5567 5566 5564 5563
5531 5529 5527 5524 5522 5520 5519 5517 5515 5514 5511 5508 5506 5504 5505 5508 5511 5515 5519 5524 5529 5535 5542 5548 5554 5559 5563 5566 5569 5571 5572 5572 5572 5572 5571 5570 5568 5567 5567 5566 5565 5564 5563
5540 5538 5535 5532 5529 5527 5525 5524 5523 5521 5519 5516 5515 5514 5515 5517 5520 5524 5527 5532 5537 5542 5548 5553 5558 5562 5566 5568 5570 5572 5572 5572 5573 5573 5572 5571 5569 5567 5566 5566 5564 5563 5561
5549 5547 5543 5540 5538 5535 5533 5532 5531 5529 5527 5526 5525 5524 5525 5527 5530 5533 5535 5539 5543 5548 5552 5557 5562 5566 5568 5570 5572 5573 5572 5572 5573 5573 5573 5571 5568 5566 5565 5564 5564 5562 5561